Kansas City International, MO

5:06 AM CDT on March 25, 2017 (GMT -0500)
Kansas City International

Weather History for KMCI - March, 2012

Change the Weather History Date:

Saturday, March 24, 2012

  Actual Average Record
Temperature  
Mean Temperature 62 °F 47 °F  
Max Temperature 75 °F 58 °F 87 °F (1929)
Min Temperature 49 °F 36 °F 13 °F (1965)
Degree Days  
Heating Degree Days 3 18  
Month to date heating degree days 244 530  
Since 1 July heating degree days 3751 4575  
Cooling Degree Days 0 0  
Month to date cooling degree days 31 0  
Year to date cooling degree days 31 0  
Growing Degree Days 12 (Base 50)    
Moisture  
Dew Point 46 °F    
Average Humidity 61    
Maximum Humidity 83    
Minimum Humidity 38    
Precipitation  
Precipitation 0.00 in 0.08 in 2.06 in (1904)
Month to date precipitation 3.47 1.73  
Year to date precipitation 6.66 4.26  
Snow  
Snow 0.00 in 0.10 in 4.00 in (1978)
Month to date snowfall 0.8 1.7  
Since 1 July snowfall 3.9 17.9  
Snow Depth 0.00 in    
Sea Level Pressure  
Sea Level Pressure 29.96 in    
Wind  
Wind Speed 9 mph (WNW)    
Max Wind Speed 16 mph    
Max Gust Speed 22 mph    
Visibility 10 miles    
Events      
T = Trace of Precipitation, MM = Missing Value Source: NWS Daily Summary

Daily Weather History Graph

Daily Weather History Graph

Search for Another Location

Airport or City:

Trip Planner

Search our weather history database for the weather conditions in past years. The results will help you decide how hot, cold, wet, or windy it might be!

Date:

Astronomy

Mar. 24, 2012 Rise Set
Actual Time 7:15 AM CDT 7:35 PM CDT
Civil Twilight 6:48 AM CDT 8:02 PM CDT
Nautical Twilight 6:16 AM CDT 8:33 PM CDT
Astronomical Twilight 5:44 AM CDT 9:05 PM CDT
Moon 7:55 AM CDT (3/24) 9:54 PM CDT (3/24)
Length of Visible Light 13h 13m
Length of Day
12h 20m
Waxing Crescent, 4% of the Moon is Illuminated
Mar 24
Waxing Crescent
Mar 30
First Quarter
Apr 6
Full
Apr 13
Last Quarter
Apr 21
New

Hourly Weather History & Observations

Time (CDT) Temp. Dew Point Humidity Pressure Visibility Wind Dir Wind Speed Gust Speed Precip Events Conditions
12:53 AM 53.1 °F 46.9 °F 80% 29.91 in 10.0 mi West 8.1 mph - N/A   Clear
1:53 AM 53.1 °F 46.0 °F 77% 29.91 in 10.0 mi West 6.9 mph - N/A   Clear
2:53 AM 54.0 °F 46.0 °F 75% 29.92 in 10.0 mi West 8.1 mph - N/A   Clear
3:53 AM 51.8 °F 46.4 °F 82% 29.93 in 10.0 mi West 8.1 mph - N/A   Clear
4:53 AM 51.1 °F 45.0 °F 80% 29.92 in 10.0 mi West 6.9 mph - N/A   Clear
5:53 AM 52.0 °F 45.0 °F 77% 29.93 in 10.0 mi West 9.2 mph - N/A   Clear
6:53 AM 50.0 °F 45.0 °F 83% 29.95 in 10.0 mi West 8.1 mph - N/A   Clear
7:53 AM 51.1 °F 46.0 °F 83% 29.98 in 10.0 mi West 4.6 mph - N/A   Clear
8:53 AM 55.0 °F 46.9 °F 74% 29.99 in 10.0 mi West 8.1 mph - N/A   Clear
9:53 AM 59.0 °F 48.0 °F 67% 29.99 in 10.0 mi WNW 6.9 mph - N/A   Clear
10:53 AM 63.0 °F 48.9 °F 60% 29.99 in 10.0 mi WNW 11.5 mph - N/A   Clear
11:53 AM 66.9 °F 50.0 °F 54% 29.99 in 10.0 mi NW 12.7 mph 18.4 mph N/A   Clear
12:53 PM 70.0 °F 50.0 °F 49% 29.98 in 10.0 mi NNW 12.7 mph - N/A   Clear
1:53 PM 72.0 °F 48.0 °F 43% 29.97 in 10.0 mi NNW 10.4 mph 19.6 mph N/A   Partly Cloudy
2:53 PM 73.0 °F 46.0 °F 38% 29.95 in 10.0 mi NW 9.2 mph 19.6 mph N/A   Partly Cloudy
3:53 PM 73.9 °F 46.9 °F 38% 29.95 in 10.0 mi NNW 8.1 mph - N/A   Clear
4:53 PM 75.0 °F 46.9 °F 37% 29.95 in 10.0 mi West 9.2 mph - N/A   Clear
5:53 PM 73.9 °F 46.0 °F 37% 29.95 in 10.0 mi NNW 5.8 mph - N/A   Clear
6:53 PM 71.1 °F 48.9 °F 45% 29.96 in 10.0 mi North 4.6 mph - N/A   Clear
7:53 PM 69.1 °F 45.0 °F 42% 29.97 in 10.0 mi Calm Calm - N/A   Partly Cloudy
8:53 PM 70.0 °F 43.0 °F 38% 29.98 in 10.0 mi Calm Calm - N/A   Clear
9:53 PM 69.1 °F 43.0 °F 39% 29.99 in 10.0 mi West 3.5 mph - N/A   Clear
10:53 PM 64.9 °F 45.0 °F 48% 30.00 in 10.0 mi WSW 5.8 mph - N/A   Clear
11:53 PM 64.9 °F 45.0 °F 48% 30.00 in 10.0 mi West 5.8 mph - N/A   Clear